Caldwell, NJ

5:11 PM EDT on September 22, 2019 (GMT -0400)
Essex County

Weather History for KCDW - July, 2019

Change the Weather History Date:

Friday, July 19, 2019

  Actual Average Record
Temperature  
Mean Temperature 83 °F -  
Max Temperature 93 °F 88 °F 98 °F (1953)
Min Temperature 73 °F 64 °F 52 °F (1984)
Cooling Degree Days 18    
Growing Degree Days 33 (Base 50)    
Moisture  
Dew Point 74 °F    
Average Humidity 77    
Maximum Humidity 96    
Minimum Humidity 56    
Precipitation  
Precipitation 0.00 in - - ()
Sea Level Pressure  
Sea Level Pressure 29.90 in    
Wind  
Wind Speed 3 mph (SW)    
Max Wind Speed 9 mph    
Max Gust Speed -    
Visibility 9 miles    
Events      
Averages and records for this station are not official NWS values.
T = Trace of Precipitation, MM = Missing Value Source: NWS Daily Summary

Daily Weather History Graph

Daily Weather History Graph

Search for Another Location

Airport or City:

Astronomy

Jul. 19, 2019 Rise Set
Actual Time 5:41 AM EDT 8:25 PM EDT
Civil Twilight 5:09 AM EDT 8:57 PM EDT
Nautical Twilight 4:28 AM EDT 9:37 PM EDT
Astronomical Twilight 3:42 AM EDT 10:22 PM EDT
Moon 10:21 PM EDT (7/19) 8:06 AM EDT (7/19)
Length of Visible Light 15h 47m
Length of Day
14h 43m
Waning Gibbous, 93% of the Moon is Illuminated
Jul 19
Waning Gibbous
Jul 24
Last Quarter
Jul 31
New
Aug 7
First Quarter
Aug 15
Full

Hourly Weather History & Observations

Time (EDT) Temp. Heat Index Dew Point Humidity Pressure Visibility Wind Dir Wind Speed Gust Speed Precip Events Conditions
12:53 AM 73.9 °F - 71.1 °F 91% 29.93 in 10.0 mi East 3.5 mph - N/A   Overcast
1:21 AM 73.9 °F - 71.1 °F 91% 29.91 in 10.0 mi Calm Calm - N/A   Overcast
1:53 AM 73.9 °F - 71.1 °F 91% 29.93 in 10.0 mi Calm Calm - N/A   Overcast
2:53 AM 73.9 °F - 71.1 °F 91% 29.93 in 10.0 mi NNW 3.5 mph - N/A   Overcast
3:53 AM 73.9 °F - 70.0 °F 87% 29.93 in 10.0 mi Calm Calm - N/A   Overcast
4:53 AM 73.0 °F - 71.1 °F 93% 29.93 in 4.0 mi Calm Calm - N/A   Overcast
5:53 AM 73.0 °F - 71.1 °F 93% 29.93 in 6.0 mi Calm Calm - N/A   Overcast
6:53 AM 73.0 °F - 72.0 °F 96% 29.93 in 4.0 mi Calm Calm - N/A   Overcast
7:10 AM 73.9 °F - 72.0 °F 93% 29.92 in 7.0 mi Calm Calm - N/A   Overcast
7:53 AM 75.0 °F - 72.0 °F 90% 29.94 in 9.0 mi WSW 3.5 mph - N/A   Overcast
8:53 AM 75.9 °F - 72.0 °F 87% 29.94 in 10.0 mi SSW 5.8 mph - N/A   Overcast
9:53 AM 79.0 °F - 73.0 °F 82% 29.94 in 10.0 mi SSW 3.5 mph - N/A   Overcast
10:14 AM 80.1 °F 84.5 °F 73.9 °F 81% 29.92 in 9.0 mi Variable 4.6 mph - N/A   Overcast
10:32 AM 81.0 °F 86.2 °F 73.9 °F 79% 29.92 in 9.0 mi WSW 4.6 mph - N/A   Scattered Clouds
10:39 AM 82.0 °F 87.9 °F 73.9 °F 76% 29.92 in 9.0 mi SW 6.9 mph - N/A   Mostly Cloudy
10:53 AM 82.9 °F 89.4 °F 73.9 °F 74% 29.93 in 9.0 mi Variable 4.6 mph - N/A   Scattered Clouds
11:53 AM 84.9 °F 93.3 °F 75.0 °F 72% 29.92 in 10.0 mi SSW 5.8 mph - N/A   Scattered Clouds
12:53 PM 88.0 °F 97.5 °F 75.0 °F 65% 29.91 in 10.0 mi SSW 9.2 mph - N/A   Scattered Clouds
1:53 PM 91.0 °F 101.6 °F 75.0 °F 59% 29.88 in 10.0 mi Variable 6.9 mph - N/A   Scattered Clouds
2:53 PM 91.9 °F 103.9 °F 75.9 °F 59% 29.87 in 10.0 mi SSW 8.1 mph - N/A   Partly Cloudy
3:53 PM 93.0 °F 104.6 °F 75.0 °F 56% 29.86 in 10.0 mi WSW 9.2 mph - N/A   Mostly Cloudy
4:53 PM 93.0 °F 104.6 °F 75.0 °F 56% 29.84 in 10.0 mi Variable 3.5 mph - N/A   Mostly Cloudy
5:53 PM 93.0 °F 105.3 °F 75.9 °F 57% 29.84 in 10.0 mi WSW 9.2 mph - N/A   Mostly Cloudy
6:53 PM 93.0 °F 106.7 °F 77.0 °F 59% 29.84 in 10.0 mi Variable 4.6 mph - N/A   Clear
7:53 PM 91.0 °F 104.2 °F 77.0 °F 63% 29.85 in 10.0 mi WSW 3.5 mph - N/A   Clear
8:53 PM 89.1 °F 103.2 °F 78.1 °F 70% 29.84 in 10.0 mi Variable 3.5 mph - N/A   Clear
9:53 PM 88.0 °F 101.3 °F 78.1 °F 72% 29.85 in 10.0 mi Calm Calm - N/A   Clear
10:53 PM 87.1 °F 99.8 °F 78.1 °F 74% 29.87 in 10.0 mi SW 3.5 mph - N/A   Clear
11:53 PM 86.0 °F 98.3 °F 78.1 °F 77% 29.86 in 9.0 mi Variable 3.5 mph - N/A   Clear